Terminal Aerodrome Forecast
Issued by NWS

Home | Current Version | Previous Version | Text Only | Print | Product List | Glossary On
Versions: 1 2 3 4 5 6 7 8 9 10 11 12 13 14 15 16 17 18 19 20 21 22 23 24 25 26 27 28 29 30 31 32 33 34 35 36 37 38 39 40 41 42 43
000
FTUS42 KRAH 021120
TAFINT
TAF
KINT 021120Z 0212/0312 25005KT 1/4SM FG VV002
      TEMPO 0212/0213 3/4SM BR OVC003
     FM021300 27005KT 2SM BR BKN005
     FM021500 33012KT P6SM SCT025 BKN250=

USA.gov is the U.S. government's official web portal to all federal, state and local government web resources and services.